This demonstration page uses our WeatherBlox Daily Observations layout. Learn more.

Left ArrowRight Arrow

Hourly Observations for July 12, 2015

Temp ( °F °C ) Dew Point ( °F °C ) Humidity (%) Winds ( mph kmh ) Pressure ( in mb ) Visibility ( mi km ) Precip ( " mm )
12:15 am 00:15 Clear 64 18 64 18 100 100 Calm 30.09 1019 10 16.0934 0 0
12:35 am 00:35 Clear 64 18 64 18 100 100 Calm 30.09 1019 10 16.0934 0 0
12:55 am 00:55 Clear 66 19 64 18 94 94 Calm 30.09 1019 10 16.0934 0 0
1:15 am 01:15 Clear 64 18 64 18 100 100 S 3 6 30.09 1019 10 16.0934 0 0
1:35 am 01:35 Clear 64 18 64 18 100 100 Calm 30.09 1019 10 16.0934 0 0
1:55 am 01:55 Clear 64 18 64 18 100 100 Calm 30.09 1019 10 16.0934 0 0
2:15 am 02:15 Clear 63 17 63 17 100 100 Calm 30.09 1019 10 16.0934 0 0
2:35 am 02:35 Clear 63 17 63 17 100 100 Calm 30.09 1019 10 16.0934 0 0
2:55 am 02:55 Clear 63 17 63 17 100 100 Calm 30.09 1019 10 16.0934 0 0
3:15 am 03:15 Clear 63 17 63 17 100 100 Calm 30.09 1019 10 16.0934 0 0
3:35 am 03:35 Clear 63 17 63 17 100 100 W 3 6 30.09 1019 10 16.0934 0 0
3:55 am 03:55 Clear 63 17 63 17 100 100 W 3 6 30.09 1019 10 16.0934 0 0
4:15 am 04:15 Clear 63 17 63 17 100 100 Calm 30.09 1019 10 16.0934 0 0
4:35 am 04:35 Clear 63 17 63 17 100 100 Calm 30.09 1019 10 16.0934 0 0
4:55 am 04:55 Clear 63 17 63 17 100 100 Calm 30.09 1019 10 16.0934 0 0
5:15 am 05:15 Clear 61 16 61 16 100 100 Calm 30.09 1019 10 16.0934 0 0
5:35 am 05:35 Clear 63 17 63 17 100 100 Calm 30.09 1019 10 16.0934 0 0
5:55 am 05:55 Sunny 61 16 61 16 100 100 Calm 30.09 1019 10 16.0934 0 0
6:15 am 06:15 Sunny 61 16 61 16 100 100 Calm 30.09 1019 10 16.0934 0 0
6:35 am 06:35 Sunny 63 17 63 17 100 100 Calm 30.09 1019 10 16.0934 0 0
6:55 am 06:55 Sunny 63 17 63 17 100 100 Calm 30.09 1019 10 16.0934 0 0
7:15 am 07:15 Sunny 66 19 64 18 94 94 Calm 30.09 1019 10 16.0934 0 0
7:35 am 07:35 Sunny 68 20 64 18 88 88 Calm 30.09 1019 10 16.0934 0 0
7:55 am 07:55 Sunny 68 20 66 19 94 94 Calm 30.12 1020 10 16.0934 0 0
8:15 am 08:15 Sunny 68 20 66 19 94 94 Calm 30.12 1020 10 16.0934 0 0
8:35 am 08:35 Sunny 70 21 68 20 94 94 Calm 30.12 1020 10 16.0934 0 0
8:55 am 08:55 Sunny 72 22 68 20 88 88 Calm 30.09 1019 10 16.0934 0 0
9:15 am 09:15 Sunny 73 23 68 20 83 83 Calm 30.09 1019 10 16.0934 0 0
9:35 am 09:35 Sunny 75 24 68 20 78 78 Calm 30.09 1019 10 16.0934 0 0
9:55 am 09:55 Sunny 77 25 68 20 74 74 Calm 30.09 1019 10 16.0934 0 0
10:15 am 10:15 Sunny 79 26 66 19 65 65 NW 6 9 30.09 1019 10 16.0934 0 0
10:35 am 10:35 Sunny 79 26 64 18 61 61 NW 6 9 30.09 1019 10 16.0934 0 0
10:55 am 10:55 Sunny 81 27 66 19 62 62 W 3 6 30.09 1019 10 16.0934 0 0
11:15 am 11:15 Sunny 81 27 66 19 62 62 Calm 30.09 1019 10 16.0934 0 0
11:35 am 11:35 Sunny 82 28 64 18 55 55 W 5 7 30.09 1019 10 16.0934 0 0
11:55 am 11:55 Sunny 82 28 64 18 55 55 WNW 9 15 30.09 1019 10 16.0934 0 0
12:15 pm 12:15 Partly Cloudy 81 27 63 17 54 54 WNW 10 17 30.09 1019 10 16.0934 0 0
12:35 pm 12:35 Mostly Cloudy 82 28 64 18 55 55 W 3 6 30.09 1019 10 16.0934 0 0
12:55 pm 12:55 Mostly Cloudy 82 28 63 17 51 51 SSE 3 6 30.06 1018 10 16.0934 0 0
1:15 pm 13:15 Partly Cloudy 84 29 61 16 45 45 S 3 6 30.06 1018 10 16.0934 0 0
1:35 pm 13:35 Sunny 84 29 61 16 45 45 Calm 30.06 1018 10 16.0934 0 0
1:55 pm 13:55 Sunny 84 29 61 16 45 45 WNW 5 7 30.06 1018 10 16.0934 0 0
2:15 pm 14:15 Sunny 84 29 61 16 45 45 S 5 7 30.06 1018 10 16.0934 0 0
2:35 pm 14:35 Sunny 84 29 61 16 45 45 NE 3 6 30.03 1017 10 16.0934 0 0
2:55 pm 14:55 Sunny 84 29 59 15 43 43 ESE 3 6 30.03 1017 10 16.0934 0 0
3:15 pm 15:15 Sunny 86 30 61 16 43 43 ESE 6 9 30.03 1017 10 16.0934 0 0
3:35 pm 15:35 Sunny 84 29 59 15 43 43 WSW 3 6 30.03 1017 10 16.0934 0 0
3:55 pm 15:55 Sunny 84 29 63 17 48 48 WSW 3 6 30.03 1017 10 16.0934 0 0
4:15 pm 16:15 Sunny 84 29 63 17 48 48 Calm 30.03 1017 10 16.0934 0 0
4:35 pm 16:35 Sunny 82 28 63 17 51 51 Calm 30 1016 10 16.0934 0 0
4:55 pm 16:55 Sunny 82 28 66 19 58 58 W 6 9 30 1016 10 16.0934 0 0
5:15 pm 17:15 Sunny 82 28 66 19 58 58 W 5 7 30 1016 10 16.0934 0 0
5:35 pm 17:35 Sunny 81 27 66 19 62 62 W 5 7 30 1016 10 16.0934 0 0
5:55 pm 17:55 Sunny 81 27 68 20 66 66 W 3 6 30 1016 10 16.0934 0 0
6:15 pm 18:15 Sunny 82 28 64 18 55 55 Calm 30 1016 10 16.0934 0 0
6:35 pm 18:35 Sunny 82 28 68 20 62 62 WSW 3 6 30 1016 10 16.0934 0 0
6:55 pm 18:55 Sunny 82 28 68 20 62 62 SW 6 9 29.97 1015 10 16.0934 0 0
7:15 pm 19:15 Sunny 81 27 70 21 70 70 SW 5 7 29.97 1015 10 16.0934 0 0
7:35 pm 19:35 Sunny 81 27 68 20 66 66 SW 5 7 29.97 1015 10 16.0934 0 0
7:55 pm 19:55 Sunny 79 26 68 20 70 70 WSW 3 6 29.97 1015 10 16.0934 0 0
8:15 pm 20:15 Sunny 77 25 68 20 74 74 WSW 3 6 29.97 1015 10 16.0934 0 0
8:35 pm 20:35 Sunny 77 25 70 21 79 79 SW 6 9 29.97 1015 10 16.0934 0 0
8:55 pm 20:55 Clear 77 25 72 22 83 83 SW 12 19 29.97 1015 10 16.0934 0 0
9:15 pm 21:15 Clear 73 23 70 21 89 89 SW 3 6 29.97 1015 10 16.0934 0 0
9:35 pm 21:35 Clear 73 23 70 21 89 89 SW 3 6 30 1016 10 16.0934 0 0
9:55 pm 21:55 Clear 73 23 70 21 89 89 SSW 9 15 30 1016 10 16.0934 0 0
10:15 pm 22:15 Clear 73 23 72 22 94 94 SSW 5 7 30 1016 10 16.0934 0 0
10:35 pm 22:35 Clear 73 23 72 22 94 94 S 10 17 30 1016 10 16.0934 0 0
11:15 pm 23:15 Clear 72 22 70 21 94 94 Calm 30 1016 10 16.0934 0 0
11:35 pm 23:35 Clear 72 22 70 21 94 94 WNW 9 15 30 1016 10 16.0934 0 0
11:55 pm 23:55 Clear 73 23 70 21 89 89 SSW 8 13 30 1016 10 16.0934 0 0

Powered by AerisWeather